Weather Roundup
Issued by NWS Corpus Christi, TX

Home | Current Version | Previous Version | Text Only | Print | Product List | Glossary On
Versions: 1 2 3 4 5 6 7 8 9 10 11 12 13 14 15 16 17 18 19 20 21 22 23 24 25 26 27 28 29 30 31 32 33 34 35 36 37 38 39 40 41 42 43 44 45 46 47 48 49 50
000
ASUS44 KCRP 192110
HRRCRP

SOUTH TEXAS REGIONAL WEATHER ROUNDUP
NATIONAL WEATHER SERVICE CORPUS CHRISTI TX
400 PM CDT TUE SEP 19 2017


TXZ229>244-192200-
...CORPUS CHRISTI AREA OBSERVATIONS...

CITY           SKY/WX    TMP DP  RH WIND       PRES   REMARKS
CORPUS CHRISTI MOSUNNY   93  75  55 SE21      29.84F HX 104
NAS CORPUS CHR PTSUNNY   91  78  65 SE18      29.85F HX 106
ROCKPORT       SUNNY     89  77  67 SE14      29.86F HX 101
KINGSVILLE ARP FAIR      97  77  53 E17G24    29.81F HX 112
KINGSVILLE NAS MOSUNNY   95  77  55 SE17G25   29.82F HX 109
ALICE          PTSUNNY   95  72  47 SE16G26   29.80F HX 103
$$

...VICTORIA AREA OBSERVATIONS...

CITY           SKY/WX    TMP DP  RH WIND       PRES   REMARKS
PORT LAVACA    MOSUNNY   90  71  53 S10       29.87F HX  97
VICTORIA       MOSUNNY   93  73  52 S12       29.86F HX 102
BEEVILLE       PTSUNNY   95  63  35 SE13G20   29.83F HX  96
PLEASANTON     MOSUNNY   97  63  32 S9        29.83F HX  99
SAN ANTONIO    MOSUNNY   94  68  42 SE13      29.85F HX  98
$$

...LAREDO AREA OBSERVATIONS...

CITY           SKY/WX    TMP DP  RH WIND       PRES   REMARKS
LAREDO         MOSUNNY  102  68  33 SE17      29.79F HX 108
COTULLA        MOSUNNY  100  63  29 S8        29.80F HX 102
DEL RIO        LGT RAIN  80  74  81 SW10      29.84F
MCALLEN        MOSUNNY   99  72  41 SE15G22   29.80F HX 108
HEBBRONVILLE   MOSUNNY   96  62  31 S16       29.82F HX  97
$$

...OTHER TEXAS OBSERVATIONS...

CITY           SKY/WX    TMP DP  RH WIND       PRES   REMARKS
BROWNSVILLE    MOSUNNY   91  77  63 SE15G23   29.84F HX 104
HOUSTON        CLOUDY    90  75  61 SW6       29.87F HX 100
COL. STATION   MOSUNNY   92  72  51 S12       29.86F HX  99
AUSTIN         PTSUNNY   93  72  50 S12       29.84F HX 101
WACO           MOSUNNY   97  69  40 S17       29.82F HX 103
FORT WORTH     PTSUNNY   97  69  40 S17       29.78F HX 103
WICHITA FALLS  TSTM      85  67  54 W13       29.74R
LUBBOCK        MOSUNNY   95  46  18 SW14      29.82F HX  91
EL PASO        MOSUNNY   94  42  16 W21G33    29.92F HX  90
$$

...MARINE OBSERVATIONS...

STATION/POSITION TIME  SKY/WX   TEMP    WIND        PRES    VSBY  WAVE   SWELL
                                AIR SEA DIR/SP/G                  HT/PER HT/PER
                 (UTC)          (F)     (DEG/KT/KT) (MB)    (MI)  (FT/S) (FT/S)
PORT ARANSAS     NOT AVBL
BUOY 90 E PORT A 2050            83 84  130/  6/  8 1012.2F         2/ 5   2/ 5
BUOY 200 E PT IS 2050            84 86  140/  8/ 10 1012.6F         2/ 4   2/ 4
BUOY 15 E GALVES 1950            83 84  140/  8/ 10 1013.4          2/ 4   2/ 4
$$




USA.gov is the U.S. government's official web portal to all federal, state and local government web resources and services.